Wind_Speed
16 17 15 14 14 14 12 11 11 11 8 9 11 12 12 12 14 13 10 9 8 9 10 9 9 9 9 6 4 7 10 10 10 12 13 13 13 11 9 8 8 11 11 12 12 13 16 12 11
16 15 14 13 11 11 11 11 10 9 10 10 9 10 10 10 10 11 10 9 10 9 8 8 7 7 8 8 7 6 7 8 10 10 12 10 9 8 7 7 6 6 6 7 8 9 9 10 9
13 14 14 13 10 9 9 10 10 8 8 8 11 11 10 10 8 9 8 7 7 8 8 7 6 6 6 7 6 7 7 5 4 5 6 7 6 6 8 8 8 7 6 7 6 5 6 5 5
10 11 12 13 10 8 7 7 8 9 9 7 7 9 9 11 9 9 8 7 6 5 5 4 3 4 5 5 5 5 5 4 4 3 2 3 3 5 5 5 5 5 5 4 4 5 5 5 4
7 8 9 11 9 8 7 5 6 6 7 9 7 5 6 6 8 8 8 7 7 6 6 4 4 3 3 2 2 2 3 3 3 3 3 4 5 5 5 6 5 5 5 6 6 6 6 6 6
6 6 7 8 7 7 7 6 5 5 5 5 7 7 4 4 4 4 4 4 3 3 3 2 3 3 3 3 0 1 2 2 3 3 4 6 5 4 5 6 6 7 8 7 7 6 8 8 8
6 6 4 5 5 5 6 6 6 4 4 3 3 4 5 2 2 3 3 2 1 0 1 0 1 1 1 2 2 2 2 2 3 5 6 8 9 8 9 10 10 11 11 11 10 9 7 7 7
9 6 4 3 2 3 3 4 4 4 3 3 3 2 2 2 1 1 2 2 2 2 3 2 3 3 3 3 4 5 5 5 5 6 7 8 9 9 8 8 9 10 9 8 7 7 8 9 9
12 8 6 3 1 2 3 2 3 3 2 3 4 4 4 4 2 2 3 4 5 4 5 6 6 5 5 6 6 6 6 5 6 7 8 10 12 13 12 11 11 11 11 12 12 12 12 13 13
14 12 10 8 5 3 4 5 4 4 4 5 6 5 6 6 6 6 6 6 6 7 8 9 9 10 9 9 8 8 8 7 7 8 9 10 12 13 14 14 14 14 14 13 13 14 16 15 13
17 14 13 11 9 7 6 7 7 6 6 6 7 7 8 8 7 8 8 9 9 10 10 11 12 12 12 11 9 8 9 10 10 11 12 13 14 16 17 18 19 17 16 14 13 13 15 15 16
19 17 15 14 13 11 10 9 9 8 9 9 8 9 9 9 10 10 10 11 12 12 12 12 13 13 13 13 12 12 13 12 13 13 13 14 16 18 21 22 21 19 15 14 16 18 20 21 20
21 19 17 17 16 14 13 11 10 12 11 10 10 10 10 11 11 12 13 14 14 14 13 13 13 13 14 15 16 16 16 17 17 17 17 16 17 18 17 21 21 19 18 19 20 24 24 24 24
23 21 20 19 18 16 14 12 14 15 12 11 10 9 10 12 13 13 14 15 17 16 16 15 15 16 16 17 18 19 19 19 20 20 20 19 19 19 17 20 22 21 23 25 27 27 26 26 26
24 22 21 21 20 17 16 12 19 15 13 11 10 9 10 12 13 16 16 17 18 19 19 19 18 19 20 20 21 21 22 22 22 22 22 21 21 20 20 20 21 25 26 27 28 29 29 29 30
26 24 23 23 21 18 17 14 18 16 14 14 12 11 11 12 15 18 20 20 20 19 21 22 23 22 23 23 24 24 24 24 24 24 25 25 24 25 25 25 27 28 29 29 30 31 31 33 34
26 26 25 23 22 21 20 17 22 19 15 14 14 14 14 16 19 23 24 24 25 24 24 25 26 25 26 27 27 27 26 25 25 25 26 27 28 28 29 29 29 29 30 30 32 34 35 37 38
32 29 26 24 24 25 24 20 22 22 19 17 16 17 17 19 23 26 27 27 28 28 29 29 28 29 29 29 29 29 29 29 28 27 27 28 28 28 28 29 30 31 31 33 35 36 38 39 40
33 30 29 27 29 30 29 25 25 27 21 21 21 20 20 24 27 30 31 30 30 31 33 33 33 32 32 31 31 31 30 30 30 31 30 30 30 31 32 33 34 34 35 36 37 38 39 40 42
36 34 32 32 34 37 34 31 28 29 27 25 25 25 26 28 29 32 34 34 33 33 33 35 36 36 35 34 33 33 34 34 33 33 34 33 34 35 36 37 37 38 38 38 39 40 41 42 43
38 38 37 38 38 40 37 39 32 29 31 31 29 29 31 32 33 37 39 42 41 37 37 36 38 37 37 35 35 34 35 35 36 38 39 38 38 37 37 38 39 40 41 41 42 42 42 43 45
42 41 42 42 43 42 40 50 36 31 31 31 30 34 34 35 36 40 43 48 48 44 42 38 37 38 36 35 35 35 36 37 38 41 42 42 42 41 39 41 42 43 43 44 44 44 44 45 46
46 45 45 45 45 45 45 50 44 34 33 32 33 34 36 38 38 44 49 51 52 49 44 42 38 36 35 36 37 37 37 38 40 43 44 44 44 44 44 44 44 45 45 46 46 46 47 48 49
47 48 48 47 46 48 48 47 48 41 38 36 35 37 38 38 40 47 50 48 49 45 42 42 40 36 36 37 38 38 39 40 42 43 44 44 45 45 45 46 46 47 48 48 48 49 50 51 52
49 49 48 49 50 50 52 53 50 44 46 39 39 40 41 40 41 44 40 40 41 41 39 40 39 38 38 39 41 41 42 44 45 46 46 46 47 47 47 47 49 49 49 49 50 51 52 54 55
50 50 51 55 54 53 53 59 54 49 44 46 46 48 47 45 39 41 40 40 37 36 35 38 41 42 43 43 42 42 44 45 45 44 45 45 46 47 48 48 49 49 51 52 53 54 55 56 58
55 56 53 54 55 57 59 58 56 53 49 49 51 52 53 53 50 46 41 42 41 39 38 38 38 39 40 41 42 43 45 45 45 44 43 42 44 46 47 49 50 51 53 54 55 56 58 59 60
58 58 58 59 59 62 61 59 56 55 57 58 58 56 56 58 55 49 39 42 45 45 44 43 42 42 42 42 43 44 43 43 43 44 43 44 45 47 48 50 51 54 55 56 58 59 60 61 62
60 58 59 61 61 62 63 62 58 61 62 61 62 65 63 55 51 34 35 41 45 48 48 48 45 44 44 45 46 43 43 44 44 45 45 46 47 48 50 52 54 55 57 61 62 61 62 64 65
65 65 64 66 65 65 64 67 61 62 65 66 66 64 64 64 53 44 38 36 41 48 48 47 47 46 45 46 46 45 46 43 43 45 48 49 50 50 52 54 56 59 62 62 62 64 65 67 70
Wind_Direction
90 90 88 89 89 89 85 78 68 64 72 77 84 83 78 80 85 85 86 86 82 71 66 63 67 78 95 122 165 185 163 168 186 190 191 204 207 211 219 226 227 235 241 249 261 263 263 267 272
91 88 86 88 82 82 87 87 82 72 73 75 76 88 89 83 83 85 84 80 85 87 80 74 75 85 89 95 109 127 166 184 189 199 202 215 218 227 234 241 242 244 256 260 267 269 262 261 268
93 90 85 83 78 72 76 79 84 83 77 77 77 77 87 89 84 85 82 84 78 79 81 78 89 108 105 97 91 95 103 118 129 180 199 205 213 227 237 241 243 246 239 245 246 265 271 267 262
99 92 87 84 81 68 59 65 79 77 78 77 83 86 80 87 88 86 84 78 76 74 68 66 65 73 87 98 99 104 126 139 160 175 174 199 198 212 202 218 222 226 232 240 248 252 255 272 284
114 97 87 83 79 71 59 46 56 69 73 73 72 87 98 91 93 93 91 82 75 72 64 51 43 48 74 96 122 140 155 169 185 200 221 224 224 226 220 227 231 245 252 247 246 247 261 273 291
141 109 91 82 75 61 47 33 34 44 66 69 70 64 80 107 117 115 108 99 83 70 76 65 57 48 48 47 22 247 261 234 246 256 257 260 259 261 270 262 262 259 257 265 269 280 282 284 280
174 140 113 91 75 59 50 27 19 20 22 37 50 62 68 87 120 126 119 105 112 164 112 88 357 12 4 328 314 305 290 276 270 275 281 282 282 277 274 278 278 276 279 276 276 276 275 274 276
192 175 171 127 79 44 32 17 16 14 4 337 328 344 349 69 83 176 201 216 210 255 265 244 237 256 267 275 283 288 296 302 299 294 294 296 297 292 285 283 278 275 273 276 276 273 270 267 268
203 194 202 208 207 337 342 327 342 351 328 295 306 320 311 292 266 255 249 254 255 257 266 263 259 258 262 264 263 268 274 283 286 288 288 290 292 295 293 289 281 279 280 279 279 276 271 263 259
209 207 217 227 231 261 303 302 296 310 305 321 320 312 306 302 289 277 273 273 278 274 268 268 265 264 264 260 256 258 263 263 267 272 275 279 285 289 291 288 283 279 279 280 277 267 267 273 280
214 216 225 237 244 255 276 285 276 282 294 305 314 316 305 298 294 283 277 275 277 275 275 269 269 271 267 257 255 255 257 262 265 266 271 279 284 287 285 284 283 282 285 279 270 271 274 279 283
221 222 231 241 247 258 271 274 269 268 285 296 303 305 300 298 291 283 280 280 273 274 277 274 270 271 271 260 257 264 265 264 265 267 269 275 281 285 287 284 283 285 284 288 287 284 290 296 296
229 231 236 245 251 255 267 273 270 271 277 289 291 293 298 298 299 295 286 280 282 277 274 273 271 270 270 269 267 270 268 269 266 267 268 271 273 276 280 284 281 281 282 284 288 288 288 290 289
234 236 241 247 252 257 262 264 267 268 278 276 280 295 304 303 305 300 298 291 278 275 272 270 270 269 269 270 272 273 275 275 273 266 262 262 266 272 270 275 278 282 285 283 283 285 282 279 279
237 239 244 249 254 256 258 258 265 274 267 268 278 290 296 300 303 303 301 293 286 277 271 269 266 266 268 269 271 274 276 278 278 275 271 265 262 263 261 265 270 274 275 276 275 276 273 273 276
240 242 244 249 254 254 250 250 265 271 268 274 279 284 297 300 305 304 302 301 296 287 274 269 265 263 264 266 269 273 274 274 274 272 273 270 265 262 260 260 263 267 268 271 273 274 275 277 277
242 242 245 247 251 250 250 247 261 268 274 280 287 286 291 299 302 296 299 298 293 287 280 270 265 262 260 261 265 270 273 274 274 274 272 275 275 272 271 270 270 272 272 274 276 277 277 278 278
240 241 244 248 249 252 253 250 259 267 273 281 283 283 288 292 296 300 301 295 290 283 279 276 269 264 260 260 263 266 268 270 273 275 274 272 271 272 272 271 270 271 273 275 276 277 277 277 278
243 244 245 248 252 254 257 254 262 268 274 279 282 285 285 286 294 300 299 296 291 287 274 271 273 268 264 263 261 262 265 269 273 275 277 275 273 271 269 269 269 271 274 275 277 278 278 279 280
244 245 247 248 254 258 258 258 259 269 274 279 279 283 283 286 294 299 298 295 291 287 284 274 269 269 267 264 265 266 266 269 272 274 276 276 273 273 271 269 271 273 274 275 277 279 280 279 278
248 249 251 253 253 259 262 262 259 265 273 276 282 281 282 284 290 295 296 294 291 288 283 276 268 267 268 267 266 267 269 271 271 272 273 275 277 278 277 274 272 272 275 276 278 279 279 279 279
250 250 252 254 256 258 262 269 262 266 268 274 278 279 283 286 288 291 292 291 288 284 284 284 276 270 270 270 269 268 269 269 268 269 270 272 275 277 276 273 271 273 275 277 279 281 280 280 281
249 250 253 256 258 259 260 268 272 266 268 271 274 279 282 285 288 286 288 288 286 284 276 278 277 272 269 267 269 270 272 272 271 272 272 273 274 275 275 274 273 273 275 278 281 282 281 281 281
250 253 254 255 258 259 263 266 269 275 275 276 278 281 285 288 289 285 285 283 283 283 273 272 276 274 270 269 269 271 273 273 274 275 275 275 274 274 274 273 272 273 275 277 281 282 281 281 282
251 253 258 258 257 260 262 265 271 274 281 281 283 284 287 290 292 290 279 281 280 280 273 268 270 272 271 271 271 273 274 274 274 274 274 275 274 274 272 270 271 273 276 278 279 280 280 281 282
252 251 253 257 259 260 261 265 270 274 279 284 287 288 290 291 295 297 286 278 276 279 276 269 269 270 271 272 273 274 275 274 275 274 272 273 273 272 271 271 272 274 275 276 278 280 281 282 283
253 254 256 257 258 260 261 265 271 277 281 281 282 285 291 293 298 298 283 274 269 271 273 274 274 273 272 272 274 275 274 274 272 273 272 273 273 273 273 274 274 274 275 277 278 280 281 283 284
251 252 253 255 256 259 265 268 272 278 277 278 280 281 286 292 295 296 277 272 269 271 274 274 273 273 272 272 274 275 273 273 271 270 270 272 273 274 273 273 273 274 275 278 279 280 281 282 284
249 250 253 256 255 258 262 264 269 270 273 278 283 287 290 289 293 280 270 266 265 267 272 274 275 276 274 274 277 278 277 275 275 273 272 273 274 275 274 273 274 275 277 278 280 280 282 283 285
251 252 252 253 255 257 261 264 267 273 276 279 284 286 286 286 283 271 268 265 262 261 266 270 273 276 278 278 277 277 278 277 277 277 276 275 273 274 274 274 275 276 279 280 281 282 284 286 286
Height
5872 5870 5872 5874 5877 5875 5876 5877 5876 5876 5877 5876 5875 5875 5876 5876 5876 5879 5877 5878 5877 5877 5877 5878 5878 5879 5879 5879 5880 5880 5882 5882 5884 5885 5885 5887 5887 5887 5887 5888 5889 5890 5890 5890 5891 5891 5893 5892 5893
5872 5872 5874 5874 5876 5876 5878 5878 5878 5878 5878 5877 5877 5877 5877 5877 5877 5878 5879 5879 5879 5879 5880 5880 5880 5881 5881 5881 5880 5880 5881 5881 5882 5883 5884 5885 5886 5887 5887 5888 5889 5889 5889 5889 5889 5890 5891 5892 5891
5873 5874 5876 5876 5876 5877 5879 5880 5880 5879 5879 5878 5878 5878 5878 5878 5878 5879 5880 5880 5881 5881 5882 5883 5883 5883 5882 5882 5882 5882 5882 5882 5881 5883 5884 5884 5885 5886 5887 5887 5887 5888 5887 5888 5889 5889 5891 5891 5890
5874 5876 5877 5877 5877 5878 5879 5880 5881 5881 5880 5880 5879 5879 5880 5879 5879 5880 5881 5881 5882 5882 5882 5883 5884 5883 5884 5884 5883 5883 5884 5883 5883 5884 5884 5885 5885 5888 5887 5888 5888 5888 5889 5889 5889 5890 5889 5890 5889
5875 5876 5877 5877 5878 5879 5880 5880 5881 5881 5881 5881 5880 5880 5880 5880 5880 5881 5881 5882 5882 5883 5883 5883 5883 5883 5884 5884 5884 5884 5884 5884 5885 5886 5886 5886 5887 5887 5887 5887 5887 5888 5888 5888 5888 5888 5888 5888 5888
5876 5877 5877 5878 5879 5880 5880 5881 5881 5882 5882 5881 5881 5880 5881 5881 5880 5881 5882 5882 5883 5883 5884 5884 5884 5885 5884 5884 5885 5884 5885 5886 5886 5886 5885 5885 5885 5886 5885 5887 5887 5887 5888 5887 5887 5887 5888 5888 5888
5876 5876 5877 5878 5879 5880 5881 5881 5881 5881 5882 5881 5881 5881 5881 5881 5881 5881 5881 5882 5883 5883 5884 5884 5884 5884 5884 5885 5885 5885 5885 5885 5885 5884 5884 5883 5884 5885 5886 5886 5886 5886 5885 5886 5886 5886 5887 5886 5886
5875 5875 5877 5878 5879 5880 5880 5881 5881 5881 5881 5881 5881 5881 5881 5881 5881 5881 5881 5881 5882 5882 5883 5883 5883 5884 5884 5884 5884 5884 5883 5883 5883 5884 5883 5883 5882 5883 5885 5885 5884 5885 5885 5885 5885 5885 5885 5885 5884
5873 5875 5875 5877 5878 5879 5879 5880 5880 5881 5881 5881 5880 5880 5880 5880 5880 5880 5881 5881 5881 5882 5882 5882 5882 5882 5882 5882 5882 5882 5882 5882 5882 5882 5882 5882 5882 5882 5882 5883 5883 5883 5883 5883 5883 5883 5883 5883 5882
5871 5872 5874 5875 5877 5878 5878 5878 5879 5880 5879 5879 5879 5879 5878 5878 5879 5879 5879 5880 5880 5880 5880 5880 5880 5880 5881 5880 5880 5880 5880 5880 5880 5880 5881 5881 5881 5880 5879 5880 5880 5880 5881 5882 5882 5882 5881 5881 5880
5868 5870 5872 5874 5875 5876 5877 5877 5877 5877 5877 5878 5878 5878 5877 5877 5877 5877 5877 5878 5878 5878 5878 5878 5878 5878 5878 5878 5878 5878 5878 5878 5878 5878 5878 5878 5878 5878 5877 5877 5876 5876 5877 5878 5878 5879 5879 5878 5878
5864 5866 5869 5871 5873 5874 5875 5876 5876 5875 5876 5876 5876 5876 5876 5875 5875 5875 5875 5875 5875 5875 5875 5875 5875 5875 5875 5876 5876 5876 5875 5876 5875 5875 5875 5875 5875 5875 5874 5874 5874 5874 5874 5874 5875 5875 5875 5875 5874
5861 5863 5865 5868 5870 5871 5872 5873 5873 5872 5873 5873 5873 5873 5874 5873 5873 5873 5872 5872 5872 5872 5872 5873 5873 5873 5872 5872 5873 5873 5873 5872 5872 5871 5871 5871 5870 5870 5870 5870 5870 5870 5871 5871 5871 5871 5870 5869 5869
5858 5859 5862 5864 5866 5868 5869 5870 5869 5868 5870 5870 5871 5871 5871 5871 5871 5870 5870 5870 5869 5869 5869 5869 5870 5870 5869 5869 5869 5869 5868 5868 5867 5868 5867 5867 5866 5866 5866 5866 5866 5867 5867 5867 5867 5866 5865 5864 5863
5854 5856 5857 5859 5862 5864 5865 5867 5865 5866 5866 5867 5868 5868 5868 5868 5868 5867 5867 5866 5866 5865 5865 5865 5865 5865 5865 5865 5865 5865 5865 5864 5864 5863 5863 5863 5862 5862 5862 5862 5861 5862 5862 5861 5860 5860 5859 5858 5857
5850 5852 5853 5854 5857 5859 5861 5863 5861 5862 5863 5864 5864 5865 5865 5865 5864 5863 5862 5862 5862 5862 5861 5861 5860 5861 5861 5861 5860 5860 5860 5859 5859 5859 5858 5858 5857 5857 5856 5856 5855 5855 5855 5855 5854 5853 5852 5851 5850
5845 5846 5847 5850 5851 5853 5855 5858 5856 5858 5860 5860 5861 5861 5861 5860 5860 5858 5858 5857 5856 5856 5855 5855 5855 5855 5855 5855 5855 5855 5854 5854 5853 5853 5852 5852 5852 5852 5851 5850 5849 5849 5848 5848 5847 5846 5845 5844 5842
5836 5840 5842 5844 5846 5846 5848 5852 5851 5853 5855 5857 5856 5856 5856 5855 5854 5853 5852 5851 5850 5849 5848 5848 5848 5848 5848 5848 5849 5849 5849 5848 5847 5847 5847 5846 5845 5844 5844 5844 5843 5842 5841 5840 5839 5838 5837 5836 5834
5832 5835 5837 5838 5838 5839 5841 5845 5846 5846 5851 5851 5851 5851 5851 5850 5848 5847 5845 5844 5843 5842 5841 5840 5840 5840 5840 5841 5841 5841 5841 5841 5841 5840 5840 5839 5838 5837 5836 5835 5835 5834 5833 5832 5831 5829 5828 5827 5826
5825 5828 5831 5832 5831 5830 5834 5838 5841 5841 5843 5845 5845 5845 5844 5843 5842 5840 5838 5837 5836 5835 5834 5833 5832 5832 5832 5833 5834 5834 5834 5834 5834 5833 5831 5831 5830 5829 5828 5828 5827 5826 5825 5824 5822 5821 5819 5818 5816
5818 5820 5822 5823 5824 5824 5827 5827 5834 5838 5838 5837 5838 5838 5837 5836 5835 5833 5830 5828 5828 5828 5825 5824 5823 5824 5824 5826 5826 5826 5826 5826 5825 5824 5823 5822 5821 5821 5820 5819 5818 5817 5816 5815 5813 5811 5809 5807 5806
5809 5810 5811 5813 5814 5817 5820 5808 5826 5831 5831 5832 5832 5829 5829 5828 5828 5825 5822 5819 5817 5818 5817 5817 5816 5816 5817 5817 5817 5817 5817 5817 5816 5814 5814 5813 5812 5812 5811 5810 5809 5808 5806 5805 5803 5801 5799 5797 5795
5799 5800 5802 5804 5805 5807 5809 5806 5810 5822 5824 5826 5825 5823 5821 5819 5820 5816 5813 5809 5807 5807 5808 5806 5807 5808 5808 5808 5808 5808 5808 5807 5806 5805 5804 5803 5802 5801 5800 5799 5798 5797 5796 5794 5793 5791 5789 5787 5785
5789 5790 5791 5792 5794 5796 5800 5802 5797 5809 5814 5816 5817 5814 5812 5812 5810 5805 5801 5799 5796 5795 5797 5797 5798 5799 5800 5799 5799 5799 5798 5797 5796 5795 5794 5793 5792 5791 5790 5789 5788 5787 5785 5784 5782 5780 5778 5775 5773
5778 5780 5779 5781 5782 5787 5787 5788 5789 5799 5798 5805 5805 5803 5802 5802 5799 5795 5791 5790 5788 5785 5786 5788 5789 5789 5789 5789 5789 5788 5788 5787 5786 5785 5784 5782 5781 5780 5779 5778 5777 5776 5775 5773 5771 5769 5766 5764 5762
5766 5768 5768 5765 5769 5776 5776 5775 5781 5789 5794 5790 5791 5789 5789 5790 5789 5786 5783 5781 5779 5777 5776 5777 5778 5778 5778 5778 5778 5777 5776 5775 5775 5773 5772 5771 5770 5769 5768 5767 5766 5765 5764 5761 5759 5757 5755 5752 5749
5753 5754 5762 5754 5757 5757 5763 5770 5773 5777 5781 5782 5780 5778 5775 5775 5777 5776 5774 5771 5770 5769 5768 5767 5767 5768 5768 5768 5767 5766 5765 5764 5763 5762 5760 5760 5759 5758 5757 5757 5756 5754 5752 5749 5747 5745 5742 5739 5736
5738 5742 5741 5741 5743 5742 5751 5755 5762 5767 5767 5767 5765 5767 5767 5767 5763 5763 5761 5760 5760 5759 5758 5757 5756 5756 5757 5757 5756 5754 5753 5752 5751 5750 5749 5748 5748 5747 5747 5745 5743 5741 5739 5737 5735 5731 5729 5726 5722
5723 5727 5728 5728 5729 5730 5736 5744 5754 5753 5752 5752 5753 5751 5753 5755 5753 5750 5750 5750 5749 5748 5747 5746 5745 5745 5745 5745 5744 5743 5742 5741 5740 5740 5739 5737 5736 5735 5734 5733 5731 5729 5727 5724 5721 5718 5715 5712 5709
5708 5713 5713 5710 5715 5716 5721 5728 5743 5744 5740 5741 5743 5741 5739 5738 5740 5741 5740 5740 5739 5736 5736 5736 5735 5734 5734 5733 5732 5731 5731 5730 5729 5728 5727 5725 5724 5723 5722 5720 5718 5716 5713 5710 5707 5704 5701 5697 5693